Temperature
19 19 18 18 18 18 18 18 18 18 18 18 18 18 18 18 18 18 18 18 18 18 18 18 18 18 18 18 18 18 18 17 17 17 17 17 17 17 17 18 18 17 17
19 18 18 18 18 18 19 18 18 18 18 18 18 18 18 18 18 18 18 17 18 18 18 18 18 18 18 18 18 18 18 17 17 17 17 17 17 17 17 17 17 17 17
18 18 18 18 18 18 18 18 18 18 18 18 18 18 18 18 18 18 18 17 17 18 18 18 18 18 18 18 18 18 18 17 17 17 17 17 17 17 17 17 17 17 16
18 18 18 18 18 18 18 18 18 18 18 18 18 18 18 18 18 18 17 17 17 17 18 18 18 18 18 18 18 18 17 17 17 17 17 17 17 17 17 17 17 16 16
19 18 18 19 19 18 18 18 18 18 18 18 18 18 18 18 18 18 17 17 17 17 17 18 18 18 18 18 17 17 17 17 17 17 17 17 17 17 16 16 16 16 16
19 18 18 19 19 18 18 18 18 18 18 18 18 18 18 18 18 17 17 17 17 17 17 17 17 17 18 17 17 17 17 17 17 17 17 17 17 17 17 16 16 16 16
19 19 19 19 19 19 18 18 18 18 18 18 18 18 17 17 17 17 17 17 17 17 17 17 17 17 17 17 17 17 17 17 17 17 17 17 17 17 17 17 16 16 16
19 19 18 18 18 18 18 18 18 18 18 18 18 17 17 17 17 17 17 17 17 17 17 17 17 17 17 17 17 17 17 17 17 16 16 16 17 17 17 17 16 16 16
18 18 18 18 18 18 18 18 18 18 18 17 17 17 17 17 17 17 17 17 17 17 17 17 17 17 17 17 17 17 17 17 17 16 16 16 16 17 17 17 16 16 16
18 18 17 17 17 17 17 17 17 17 17 17 17 17 17 17 17 17 17 17 17 17 17 17 17 17 17 17 17 17 17 17 16 16 16 16 16 16 17 16 16 16 16
17 17 17 17 17 17 17 17 17 17 17 17 17 16 16 16 16 16 16 17 17 17 17 17 17 17 17 17 17 16 16 16 16 16 16 16 16 16 16 16 16 16 16
17 17 16 16 16 16 16 16 16 16 16 16 16 16 16 16 16 16 16 16 16 17 17 17 17 17 17 16 16 16 16 16 16 16 16 16 16 16 16 16 16 16 16
16 16 16 16 15 15 16 16 16 16 16 16 16 16 16 16 16 16 16 16 16 16 16 16 16 16 16 16 16 16 16 16 16 16 16 16 16 16 15 15 15 16 16
15 15 15 15 15 15 15 15 15 15 15 15 15 15 15 15 15 15 15 15 15 15 16 16 16 16 16 16 16 16 16 16 15 15 15 15 15 15 15 15 15 15 15
14 14 14 14 14 14 14 14 14 14 15 15 15 15 15 15 15 15 15 15 15 14 15 16 16 16 16 16 16 16 16 16 15 15 15 15 15 15 15 15 15 15 15
14 14 14 14 14 14 14 14 14 14 14 14 14 15 15 15 15 15 15 15 14 14 14 15 15 15 15 15 16 16 15 15 15 15 15 15 15 15 15 15 15 15 15
13 13 13 13 13 13 13 13 13 13 14 14 14 14 14 14 14 14 14 14 14 14 14 15 15 15 15 15 15 15 15 15 15 15 15 15 15 15 15 15 15 15 15
13 13 13 13 13 13 13 14 14 14 14 14 14 14 14 14 14 14 14 14 14 14 14 14 14 15 15 15 15 15 15 15 15 15 15 15 15 15 15 15 15 15 15
13 13 13 14 14 14 14 14 14 14 14 14 14 14 14 15 15 14 14 14 14 14 14 14 14 14 14 15 15 15 15 15 15 15 15 15 15 15 15 15 15 15 14
13 13 13 14 14 14 14 14 14 14 14 14 14 14 14 14 15 15 14 14 14 14 14 14 14 14 14 14 14 14 14 14 14 14 14 14 15 15 15 15 14 14 14
13 13 13 13 13 13 13 13 14 14 14 14 14 14 14 14 14 14 14 14 14 14 14 14 14 14 14 14 14 14 14 14 14 14 14 14 14 14 14 14 14 14 14
12 12 12 12 13 13 13 13 13 14 14 14 14 14 14 14 14 14 14 14 14 14 14 14 14 14 14 14 14 13 13 13 13 13 13 13 14 14 14 14 14 14 13
12 12 12 12 12 12 12 13 13 13 13 14 14 14 14 14 14 14 14 14 14 14 14 14 14 14 14 13 13 13 13 13 13 13 13 13 13 13 13 13 13 13 13
11 11 11 11 12 12 12 12 12 12 13 13 13 13 13 13 14 14 14 14 14 14 14 14 14 14 13 13 13 13 13 13 12 12 13 12 12 12 12 12 12 12 12
11 11 11 11 11 11 11 12 12 12 12 12 13 13 13 13 13 13 13 14 14 14 14 14 14 13 13 13 13 13 13 13 12 12 12 12 12 12 12 12 11 11 11
10 10 10 11 11 11 11 11 11 11 11 12 12 12 12 12 13 13 13 13 13 14 14 13 13 13 13 13 13 13 13 13 12 12 12 12 12 12 11 11 11 11 11
Wind_Speed
6 6 7 9 10 10 8 7 6 6 7 8 8 6 7 9 9 9 8 7 6 4 4 5 6 6 5 4 3 4 4 4 5 6 7 8 9 9 8 7 7 6 5
8 7 6 7 9 11 11 8 7 5 4 4 4 6 9 10 10 9 8 6 5 4 4 5 5 6 7 6 5 5 5 5 5 6 7 8 8 8 8 7 7 6 5
12 9 9 9 9 13 11 7 6 5 4 4 5 6 7 8 9 9 8 7 5 4 4 4 4 5 6 6 6 5 6 6 6 6 7 8 8 8 9 8 8 7 6
16 11 9 10 12 12 7 5 5 4 4 4 4 4 4 5 7 8 8 7 7 5 5 5 5 5 5 5 5 5 5 6 6 6 7 7 8 8 8 8 8 7 7
16 10 8 9 12 8 6 6 4 4 4 4 4 3 3 3 4 6 6 8 9 8 7 7 7 6 6 5 5 5 6 6 6 6 6 6 6 6 6 6 6 6 6
13 10 6 7 8 7 6 6 5 4 3 4 2 2 1 2 3 4 5 7 10 11 10 8 8 7 7 7 6 6 6 6 6 6 6 6 5 5 4 4 5 5 6
11 8 6 6 7 7 8 8 5 5 3 3 3 2 2 2 3 3 3 4 6 10 11 10 10 8 8 9 8 8 7 7 7 7 6 6 5 5 4 4 4 5 5
9 8 8 6 6 6 7 7 5 4 3 3 4 3 1 4 3 2 2 5 6 6 8 11 11 11 10 10 10 10 9 8 8 8 7 7 6 5 5 4 4 4 4
5 5 6 6 6 5 5 5 6 6 4 2 2 4 4 5 3 3 2 2 4 5 5 7 11 13 13 12 11 12 11 10 9 8 8 7 7 6 6 5 4 4 3
4 4 4 5 5 4 5 5 5 4 5 4 2 2 3 4 3 2 3 2 2 4 5 5 8 13 15 14 14 14 14 13 11 10 8 8 7 7 6 6 6 5 4
5 5 4 4 5 5 5 5 5 5 4 4 4 3 2 2 2 3 3 3 2 3 4 5 4 9 14 16 16 16 17 16 14 11 9 8 8 8 7 7 7 6 5
5 5 5 4 4 4 5 4 5 6 5 4 4 4 4 3 4 4 4 4 3 3 3 3 4 6 12 16 17 18 20 18 16 14 11 10 9 9 9 8 8 7 6
3 4 4 4 3 2 2 2 3 3 4 4 4 4 4 4 3 4 4 3 3 3 3 3 4 6 10 14 17 20 21 20 18 16 14 12 11 10 10 10 9 8 7
3 3 4 4 4 2 2 2 1 2 2 3 4 4 4 4 4 4 5 4 2 2 3 5 3 4 8 13 17 20 19 21 20 18 16 14 13 12 12 11 11 10 9
4 4 4 3 3 2 1 1 1 1 2 2 3 4 3 3 4 4 4 4 5 3 3 4 3 3 5 9 14 17 17 21 21 20 18 16 15 14 13 12 12 11 9
4 4 3 3 2 2 2 2 1 0 2 2 2 3 4 3 4 4 4 4 4 5 4 3 3 3 2 5 11 15 17 19 21 21 20 19 18 17 16 15 14 13 12
3 3 2 2 2 2 1 1 1 2 2 3 3 4 5 4 4 4 3 3 4 4 5 4 3 2 2 3 4 9 11 12 14 19 20 20 19 19 18 17 16 16 15
2 2 2 1 1 1 1 1 2 1 3 4 4 4 4 4 5 4 4 4 4 4 5 5 3 2 3 3 3 4 5 9 11 14 19 21 21 20 19 19 18 17 17
4 4 4 3 3 3 2 2 2 3 4 5 5 5 4 4 4 3 4 4 3 3 4 4 3 2 2 1 1 2 2 2 5 8 13 18 20 19 19 19 18 18 17
7 7 7 7 6 5 4 3 2 2 3 4 4 3 4 4 5 5 4 3 2 2 2 2 2 2 2 1 1 2 2 1 1 1 3 6 11 15 16 16 16 17 19
10 9 9 9 7 6 6 5 3 1 0 1 1 1 3 5 6 5 4 3 3 2 1 1 1 1 1 0 2 2 2 1 0 1 1 1 1 3 5 10 13 16 18
9 9 9 8 9 8 10 9 5 2 2 2 2 1 1 3 5 5 5 5 5 3 2 2 1 0 1 1 1 1 2 2 0 1 1 1 1 1 2 3 5 9 12
8 8 8 8 8 11 16 15 13 6 4 3 1 1 2 2 3 2 2 2 1 2 3 3 2 1 1 1 2 2 2 2 1 1 1 2 2 2 3 5 6 6 6
6 6 7 7 8 12 18 17 14 8 6 5 3 2 3 2 2 3 3 2 1 1 1 1 2 1 1 1 2 3 3 3 3 3 2 2 2 2 2 4 7 8 8
5 5 5 7 8 10 17 16 13 6 6 7 6 5 4 3 2 4 5 5 4 3 4 4 4 4 5 5 5 4 4 3 2 2 2 2 2 2 2 2 5 7 7
5 6 7 7 8 8 15 16 13 5 5 5 5 5 6 5 4 4 5 5 5 2 3 3 4 4 5 5 6 4 3 3 2 1 1 2 2 3 3 3 3 6 7
Wind_Direction
197 191 194 201 209 214 214 214 220 232 244 252 250 213 178 173 171 173 183 187 183 187 198 209 210 208 214 224 238 237 220 200 194 190 184 173 166 161 160 162 165 165 163
195 190 193 201 213 218 218 214 213 215 219 208 189 164 161 169 179 177 181 186 189 194 202 207 207 210 215 220 227 234 222 206 198 196 193 187 180 176 179 183 187 186 186
200 195 200 204 211 217 219 211 211 200 185 169 149 147 157 171 176 180 182 184 191 205 205 197 198 209 213 217 223 227 216 204 200 198 197 195 194 195 200 205 205 201 203
205 197 200 205 206 208 207 187 178 168 166 155 151 163 164 168 179 186 187 189 192 203 209 202 191 188 194 204 210 212 206 200 199 197 195 194 197 203 209 210 211 208 213
206 194 196 198 193 189 186 182 166 157 160 167 174 178 182 186 188 188 190 196 198 202 206 207 197 187 184 187 191 193 192 190 187 185 184 186 189 196 204 211 212 214 221
199 188 188 186 175 169 169 167 156 147 152 162 145 129 196 236 218 196 197 192 199 202 205 204 199 195 190 186 185 185 185 183 180 178 179 180 182 188 198 212 220 229 231
183 178 177 172 167 166 167 159 145 145 144 136 104 50 349 316 264 242 202 180 198 204 203 204 204 201 196 193 189 187 188 188 186 184 185 189 193 199 209 223 228 232 235
177 176 165 164 162 157 158 156 147 147 154 144 134 119 342 328 309 287 224 192 201 201 202 207 208 209 201 196 199 195 192 194 195 196 199 201 206 210 212 217 225 231 227
163 161 165 160 157 156 171 174 162 154 166 178 152 149 163 220 277 310 284 220 198 200 206 204 210 213 206 201 202 203 196 193 196 200 205 209 212 214 212 213 216 199 180
148 159 167 163 159 161 173 189 173 159 160 175 194 193 174 160 170 272 313 303 248 217 214 211 209 209 206 202 204 204 199 194 195 199 205 212 218 218 213 203 192 181 165
164 160 166 159 164 172 179 189 182 180 175 176 179 172 179 183 165 169 241 290 309 268 235 222 207 202 204 203 203 205 203 198 196 199 205 213 217 213 204 193 182 179 179
155 149 159 164 166 174 180 193 192 187 185 187 184 183 176 184 193 180 200 226 250 281 272 238 219 207 203 202 204 205 205 202 200 201 205 212 217 214 205 195 192 196 209
131 141 146 139 144 162 165 164 175 187 188 193 195 198 201 208 187 168 172 198 230 282 299 275 234 219 208 200 204 206 207 205 205 205 206 211 217 217 211 206 209 217 229
104 123 124 123 125 128 127 119 135 173 193 210 210 198 204 207 191 175 168 161 189 282 292 274 283 228 212 201 206 205 207 209 210 210 210 212 215 217 217 219 223 229 237
89 87 91 94 89 89 89 100 133 183 196 219 216 208 202 205 189 179 166 160 165 205 260 269 274 274 221 208 209 204 206 211 212 214 214 215 217 219 222 226 229 233 237
62 69 69 65 63 69 63 64 47 270 210 224 213 194 198 202 189 178 172 172 170 177 222 258 261 281 262 226 214 204 209 213 214 216 218 219 221 223 226 229 231 232 234
50 55 53 44 30 28 33 76 241 224 226 234 220 203 208 197 190 186 178 179 184 179 216 259 258 269 248 232 200 204 214 217 221 223 224 226 227 228 230 232 233 234 234
24 32 41 43 14 359 359 329 291 252 242 246 241 225 223 203 197 195 191 200 202 200 207 246 270 263 245 225 199 195 206 217 221 231 232 232 233 233 234 235 236 236 236
34 37 48 54 40 29 9 326 286 261 253 250 235 216 216 193 201 199 201 206 211 209 202 222 256 256 255 225 169 197 202 205 218 234 239 239 238 238 238 239 241 243 243
55 56 57 55 55 55 40 7 337 285 254 242 230 206 192 187 192 188 185 191 183 178 192 220 251 264 259 249 158 192 219 216 236 265 263 251 244 242 244 246 248 250 250
59 58 59 50 41 43 32 14 360 4 356 2 333 211 192 185 177 172 165 164 149 143 150 187 247 295 287 187 212 194 200 188 300 308 300 326 276 252 256 258 258 259 259
52 57 56 51 42 33 26 27 30 28 34 49 45 42 109 142 162 167 164 162 158 151 150 137 118 187 267 230 182 152 141 122 254 334 104 23 41 9 339 324 314 293 280
51 53 48 43 35 26 33 35 40 43 42 40 60 118 119 124 128 130 150 135 128 134 145 147 139 199 237 217 152 124 120 122 141 345 61 50 26 29 18 26 22 23 19
47 48 42 36 32 28 32 33 36 35 37 33 36 67 114 108 119 151 143 122 84 44 90 121 137 142 137 120 132 128 121 98 68 24 48 78 16 9 358 11 25 35 39
41 38 35 33 30 18 26 31 34 24 33 31 33 45 75 87 92 130 134 127 100 64 68 100 110 99 92 96 107 93 85 84 67 19 19 81 22 357 348 348 5 19 24
43 44 41 33 28 18 21 26 29 24 29 27 28 31 49 63 66 109 132 135 131 124 103 93 71 60 60 69 77 92 117 109 108 69 5 73 35 23 17 344 350 5 10
Height
1547 1548 1549 1551 1553 1554 1555 1555 1556 1557 1558 1558 1559 1559 1560 1561 1561 1561 1560 1559 1558 1558 1557 1557 1557 1558 1559 1559 1560 1561 1561 1562 1563 1564 1565 1565 1566 1566 1567 1568 1568 1568 1569
1545 1546 1548 1550 1552 1553 1554 1555 1556 1556 1557 1558 1558 1559 1559 1560 1561 1560 1560 1559 1558 1558 1557 1556 1557 1557 1558 1558 1559 1560 1561 1562 1562 1563 1564 1565 1566 1566 1567 1567 1567 1568 1568
1542 1544 1546 1547 1549 1551 1553 1554 1554 1555 1556 1557 1558 1558 1559 1560 1560 1560 1560 1559 1559 1558 1557 1556 1556 1556 1557 1557 1558 1559 1560 1561 1562 1562 1563 1564 1565 1566 1566 1566 1567 1567 1567
1539 1541 1543 1545 1547 1549 1551 1552 1553 1554 1555 1556 1557 1558 1558 1559 1559 1559 1559 1559 1558 1558 1557 1557 1556 1556 1556 1556 1557 1558 1559 1559 1560 1561 1562 1563 1564 1564 1565 1565 1565 1566 1566
1536 1538 1539 1542 1544 1546 1548 1550 1551 1552 1554 1555 1555 1556 1557 1557 1558 1558 1558 1557 1558 1558 1557 1557 1557 1556 1556 1556 1556 1557 1558 1558 1559 1560 1561 1562 1562 1563 1563 1564 1564 1564 1564
1532 1534 1536 1539 1541 1543 1545 1547 1549 1550 1551 1553 1554 1554 1555 1556 1556 1556 1556 1556 1556 1557 1557 1557 1557 1556 1556 1556 1556 1556 1557 1557 1558 1559 1560 1560 1561 1561 1562 1562 1562 1562 1562
1529 1531 1533 1535 1537 1539 1541 1544 1546 1547 1548 1550 1551 1553 1553 1554 1554 1554 1554 1555 1555 1555 1555 1556 1556 1556 1556 1556 1556 1556 1556 1556 1557 1557 1558 1559 1559 1560 1560 1560 1560 1560 1561
1524 1526 1529 1531 1534 1536 1538 1540 1542 1543 1545 1546 1548 1550 1551 1552 1551 1552 1552 1552 1553 1553 1554 1554 1555 1555 1555 1555 1555 1555 1555 1555 1556 1556 1557 1557 1558 1558 1558 1558 1559 1559 1559
1520 1522 1524 1527 1529 1532 1534 1536 1538 1539 1541 1543 1544 1546 1547 1547 1548 1549 1549 1550 1550 1551 1551 1552 1552 1553 1554 1554 1554 1554 1554 1554 1555 1555 1555 1556 1556 1557 1557 1557 1557 1558 1558
1512 1516 1519 1522 1525 1527 1529 1532 1533 1535 1537 1538 1540 1541 1543 1544 1545 1545 1546 1547 1548 1548 1549 1549 1550 1550 1551 1552 1552 1553 1554 1554 1554 1554 1554 1554 1555 1555 1556 1556 1557 1557 1557
1508 1511 1514 1517 1520 1523 1525 1527 1529 1530 1532 1533 1535 1536 1538 1540 1541 1542 1543 1544 1545 1546 1546 1547 1547 1547 1548 1549 1550 1551 1552 1552 1552 1553 1553 1553 1554 1554 1555 1555 1556 1556 1556
1504 1506 1509 1512 1515 1519 1521 1523 1525 1526 1527 1528 1530 1532 1533 1535 1536 1538 1539 1540 1541 1542 1543 1543 1543 1544 1545 1545 1547 1548 1549 1550 1551 1551 1551 1551 1552 1553 1553 1554 1554 1555 1555
1501 1503 1505 1507 1510 1514 1517 1519 1521 1523 1524 1525 1526 1527 1529 1531 1533 1534 1535 1536 1537 1538 1539 1539 1540 1541 1541 1542 1543 1545 1546 1547 1548 1549 1549 1549 1550 1551 1551 1552 1552 1553 1553
1499 1501 1503 1505 1507 1510 1513 1515 1517 1519 1520 1522 1523 1524 1525 1527 1529 1530 1532 1533 1533 1534 1534 1535 1536 1536 1537 1538 1540 1541 1543 1544 1545 1546 1547 1547 1548 1548 1549 1550 1550 1550 1550
1498 1499 1500 1503 1504 1507 1510 1512 1514 1516 1517 1519 1520 1522 1523 1524 1526 1527 1528 1529 1530 1530 1530 1530 1531 1532 1533 1535 1536 1538 1539 1541 1542 1543 1544 1545 1545 1546 1546 1547 1547 1547 1548
1498 1500 1501 1502 1503 1505 1507 1510 1512 1513 1514 1516 1518 1519 1521 1522 1523 1524 1524 1525 1526 1526 1526 1526 1527 1529 1530 1531 1533 1534 1536 1538 1539 1540 1541 1542 1543 1543 1544 1544 1544 1545 1545
1499 1500 1501 1502 1503 1505 1507 1509 1510 1512 1513 1515 1516 1517 1519 1519 1520 1521 1521 1522 1522 1523 1522 1523 1524 1525 1525 1527 1529 1531 1533 1534 1536 1537 1538 1539 1540 1540 1541 1541 1541 1541 1542
1502 1502 1503 1503 1504 1506 1507 1508 1510 1511 1512 1514 1515 1516 1516 1517 1518 1518 1519 1519 1520 1520 1520 1520 1520 1521 1522 1523 1525 1527 1529 1530 1532 1533 1534 1535 1536 1537 1537 1538 1538 1538 1538
1505 1504 1505 1505 1506 1507 1508 1508 1509 1510 1511 1512 1513 1514 1515 1515 1516 1517 1517 1517 1518 1518 1518 1518 1518 1518 1518 1520 1521 1523 1525 1526 1527 1529 1531 1531 1532 1533 1533 1534 1534 1534 1534
1506 1506 1506 1506 1507 1507 1507 1508 1509 1509 1510 1511 1511 1512 1513 1514 1515 1515 1516 1516 1516 1516 1516 1516 1515 1515 1516 1516 1518 1519 1521 1523 1524 1525 1526 1528 1528 1529 1529 1530 1530 1530 1530
1508 1507 1507 1507 1507 1507 1507 1507 1507 1508 1508 1509 1509 1510 1511 1512 1513 1514 1515 1515 1515 1515 1514 1514 1514 1514 1514 1514 1515 1517 1518 1519 1520 1521 1522 1523 1524 1525 1526 1526 1525 1525 1525
1510 1509 1508 1507 1507 1506 1506 1506 1505 1505 1506 1507 1507 1508 1509 1511 1512 1513 1514 1515 1515 1514 1514 1514 1513 1513 1513 1513 1514 1514 1515 1516 1518 1519 1519 1520 1520 1521 1521 1521 1521 1521 1520
1512 1511 1509 1508 1507 1506 1505 1505 1504 1504 1504 1505 1506 1507 1508 1510 1511 1512 1514 1514 1515 1515 1515 1514 1514 1513 1513 1513 1513 1513 1514 1515 1516 1517 1517 1517 1518 1518 1518 1518 1518 1517 1516
1514 1513 1512 1510 1509 1507 1506 1505 1504 1503 1503 1504 1504 1505 1507 1508 1510 1512 1513 1514 1514 1515 1515 1515 1514 1514 1514 1514 1513 1514 1514 1515 1515 1516 1516 1517 1517 1517 1517 1516 1516 1515 1514
1517 1516 1514 1513 1511 1509 1507 1505 1504 1503 1502 1502 1503 1504 1505 1507 1508 1510 1512 1513 1514 1515 1515 1515 1515 1515 1515 1515 1514 1514 1515 1515 1516 1516 1516 1516 1517 1516 1517 1516 1516 1515 1514
1520 1518 1517 1515 1512 1510 1508 1506 1504 1503 1502 1501 1501 1502 1503 1505 1506 1508 1510 1511 1513 1514 1515 1516 1516 1516 1516 1516 1515 1516 1516 1516 1516 1516 1517 1517 1517 1517 1517 1517 1516 1515 1514